Stations météo

Publicité
Cap Corse, France (7785): Température de l'air & dewpoint: 25.09.2020 08:00:00 - 01.10.2020 08:00:00 (CEST)Cap Corse, France (7785): Vitesse du vent & gusts: 25.09.2020 08:00:00 - 01.10.2020 08:00:00 (CEST)Cap Corse, France (7785): Direction du vent: 25.09.2020 08:00:00 - 01.10.2020 08:00:00 (CEST)Cap Corse, France (7785): reduced air pressure: 25.09.2020 08:00:00 - 01.10.2020 08:00:00 (CEST)Cap Corse, France (7785): visibility: 25.09.2020 08:00:00 - 01.10.2020 08:00:00 (CEST)Cap Corse, France (7785): Quantités de précipitations: 25.09.2020 08:00:00 - 01.10.2020 08:00:00 (CEST)
Date & Time tt [°C] td [°C] ff [km/h] ff [knt] fx [km/h] fx [knt] dd ppp [hPa] vv [km] rr [mm]
01.10.2020 08:00:00 18,3 13,6 21 12 39 21 W 1010,6 - 0,0
01.10.2020 07:00:00 17,9 13,8 21 12 41 22 WSW 1010,4 - 0,0
01.10.2020 06:00:00 18,2 13,9 22 12 41 22 WSW 1010,7 - 0,0
01.10.2020 05:00:00 18,6 14,3 22 12 44 24 WSW 1011,0 - 0,0
01.10.2020 04:00:00 19,0 14,7 28 15 42 23 W 1011,4 - 0,0
01.10.2020 03:00:00 18,9 14,2 21 11 41 22 W 1012,2 - 0,0
01.10.2020 02:00:00 19,1 13,9 25 13 38 20 W 1012,6 - 0,0
01.10.2020 01:00:00 19,2 14,7 23 13 33 18 WNW 1013,1 - 0,0
01.10.2020 00:00:00 18,9 14,2 21 11 30 16 W 1013,4 - 0,0
30.09.2020 23:00:00 19,3 13,9 15 8 32 17 W 1013,6 - 0,0
30.09.2020 22:00:00 18,8 14,3 12 6 22 12 WSW 1013,9 - 0,0
30.09.2020 21:00:00 18,5 14,0 9 5 22 12 WSW 1014,0 - 0,0
30.09.2020 20:00:00 18,4 13,5 10 5 26 14 W 1014,0 - 0,0
30.09.2020 19:00:00 19,1 13,7 9 5 26 14 W 1013,9 - 0,0
30.09.2020 18:00:00 19,7 14,5 15 8 27 15 W 1014,1 - 0,0
30.09.2020 17:00:00 19,7 14,7 14 8 29 15 W 1014,4 - 0,0
30.09.2020 16:00:00 20,0 14,4 16 8 32 18 W 1014,6 - 0,0
30.09.2020 15:00:00 20,6 14,7 16 9 26 14 W 1014,9 - 0,0
30.09.2020 14:00:00 20,9 14,1 16 9 23 13 W 1015,4 - 0,0
30.09.2020 13:00:00 20,8 14,2 16 9 29 16 W 1015,9 - 0,0
30.09.2020 12:00:00 20,6 14,5 16 8 27 15 W 1016,1 - 0,0
30.09.2020 11:00:00 20,7 15,0 16 9 26 14 W 1016,1 - 0,0
30.09.2020 10:00:00 20,4 14,3 16 9 31 17 W 1016,2 - 0,0
30.09.2020 09:00:00 19,4 14,6 21 12 36 19 W 1016,1 - 0,0
30.09.2020 08:00:00 18,7 14,6 24 13 41 22 W 1015,7 20 0,0
30.09.2020 07:00:00 18,0 14,3 22 12 42 23 W 1015,7 - 0,0
30.09.2020 06:00:00 18,1 14,2 32 17 46 25 W 1015,7 - 0,0
30.09.2020 05:00:00 18,3 14,4 25 13 40 22 WNW 1016,1 - 0,0
30.09.2020 04:00:00 18,5 14,4 26 14 37 20 WNW 1016,6 - 0,0
30.09.2020 03:00:00 18,5 14,8 23 13 33 18 WNW 1017,0 - 0,0
30.09.2020 02:00:00 18,6 14,5 20 11 30 16 W 1017,2 15 0,0
30.09.2020 01:00:00 18,6 14,5 21 11 30 16 WNW 1017,2 - 0,0
30.09.2020 00:00:00 18,6 14,5 16 8 26 14 W 1017,4 - 0,0
29.09.2020 23:00:00 18,9 14,6 11 6 20 11 WNW 1017,6 - 0,0
29.09.2020 22:00:00 19,0 14,5 11 6 24 13 WNW 1017,5 - 0,0
29.09.2020 21:00:00 19,3 14,8 15 8 21 11 WNW 1017,4 - 0,0
29.09.2020 20:00:00 19,5 14,9 11 6 16 9 WNW 1017,4 - 0,0
29.09.2020 19:00:00 19,6 14,2 3 2 24 13 W 1017,1 - 0,0
29.09.2020 18:00:00 20,7 12,1 11 6 22 12 W 1017,0 - 0,0
29.09.2020 17:00:00 21,7 11,7 15 8 26 14 WNW 1016,8 - 0,0
29.09.2020 16:00:00 21,7 13,1 20 11 31 17 W 1016,8 - 0,0
29.09.2020 15:00:00 23,2 10,9 10 5 22 12 W 1017,1 - 0,0
29.09.2020 14:00:00 23,4 13,3 8 4 38 21 ENE 1017,3 20 0,0
29.09.2020 13:00:00 20,8 12,7 25 14 42 23 SE 1017,8 - 0,0
29.09.2020 12:00:00 22,1 12,4 21 11 35 19 ESE 1017,5 - 0,0
29.09.2020 11:00:00 21,8 11,5 17 9 - - ESE 1017,3 20 0,0
29.09.2020 10:00:00 21,2 10,4 13 7 22 12 ESE 1017,0 - 0,0
29.09.2020 09:00:00 20,4 8,4 15 8 23 12 SSE 1016,3 - 0,0
29.09.2020 08:00:00 17,5 8,4 15 8 21 12 SSE 1016,0 18 0,0
29.09.2020 07:00:00 15,6 9,3 11 6 16 9 SSE 1015,7 - 0,0
29.09.2020 06:00:00 16,0 9,4 9 5 20 11 WSW 1015,4 - 0,0
29.09.2020 05:00:00 16,1 8,3 11 6 30 16 WSW 1015,4 - 0,0
29.09.2020 04:00:00 17,0 8,2 16 9 36 19 W 1014,8 - 0,0
29.09.2020 03:00:00 17,8 8,4 21 12 40 22 WSW 1014,5 - 0,0
29.09.2020 02:00:00 17,8 8,9 22 12 43 23 WSW 1014,4 15 0,0
29.09.2020 01:00:00 17,9 9,8 24 13 49 27 WSW 1014,2 - 0,0
29.09.2020 00:00:00 18,1 10,0 29 16 58 32 W 1013,8 - 0,0
28.09.2020 23:00:00 18,3 9,6 38 21 72 39 W 1013,4 - 0,0
28.09.2020 22:00:00 18,1 11,2 43 23 73 39 W 1012,1 - 0,0
28.09.2020 21:00:00 18,2 10,6 39 21 70 38 W 1012,1 - 0,0
28.09.2020 20:00:00 18,1 11,2 41 22 55 30 WNW 1011,5 15 0,0
28.09.2020 19:00:00 18,1 10,5 40 22 58 31 W 1010,6 - 0,0
28.09.2020 18:00:00 18,5 11,3 34 19 54 29 WNW 1010,2 - 0,0
28.09.2020 17:00:00 18,6 10,2 39 21 60 33 W 1009,6 25 0,0
28.09.2020 16:00:00 18,9 9,1 44 24 62 34 W 1009,1 - 0,0
28.09.2020 15:00:00 19,8 11,3 40 22 60 33 W 1008,6 - 0,0
28.09.2020 14:00:00 19,4 10,4 41 22 62 33 W 1008,5 25 0,0
28.09.2020 13:00:00 - - - - - - - - - -
28.09.2020 12:00:00 - - - - - - - - - -
28.09.2020 11:00:00 18,6 10,2 44 24 86 46 W 1006,9 25 0,0
28.09.2020 10:00:00 17,9 10,8 46 25 70 38 W 1006,8 - 0,0
28.09.2020 09:00:00 17,1 10,2 45 24 71 39 W 1006,4 - 0,0
28.09.2020 08:00:00 16,8 10,6 32 18 64 35 W 1005,8 25 0,0
28.09.2020 07:00:00 16,9 9,8 38 21 60 33 WNW 1005,7 - 0,0
28.09.2020 06:00:00 17,0 8,7 44 24 78 42 W 1005,1 - 0,0
28.09.2020 05:00:00 16,6 9,0 41 22 63 34 W 1005,4 - 0,0
28.09.2020 04:00:00 17,4 10,5 37 20 55 30 WNW 1005,4 - 0,0
28.09.2020 03:00:00 17,2 9,4 35 19 53 29 WNW 1005,7 - 0,0
28.09.2020 02:00:00 17,2 8,6 43 23 55 30 WNW 1005,4 18 0,0
28.09.2020 01:00:00 15,9 7,6 16 9 45 25 N 1006,2 - 0,0
28.09.2020 00:00:00 15,3 8,5 22 12 61 33 NNE 1006,5 - 0,0
27.09.2020 23:00:00 17,4 8,5 48 26 63 34 WNW 1005,2 18 0,0
27.09.2020 22:00:00 16,8 8,5 39 21 51 27 WNW 1004,7 - 0,0
27.09.2020 21:00:00 16,1 8,6 27 14 37 20 WNW 1005,0 - 0,0
27.09.2020 20:00:00 14,2 7,9 8 4 22 12 NW 1004,5 18 0,0
27.09.2020 19:00:00 15,5 7,5 14 8 30 16 NE 1003,9 - 0,0
27.09.2020 18:00:00 15,9 9,1 13 7 35 19 NNE 1003,1 - 0,0
27.09.2020 17:00:00 16,1 10,8 26 14 42 23 NE 1002,3 14 0,0
27.09.2020 16:00:00 15,1 10,5 15 8 43 23 ESE 1003,1 - 0,0
27.09.2020 15:00:00 14,1 7,6 36 19 69 37 ENE 1002,7 - 0,0
27.09.2020 14:00:00 12,9 11,0 44 24 67 36 NE 1003,4 14 2,0
27.09.2020 13:00:00 13,1 9,3 34 19 44 24 SE 1003,5 - 1,8
27.09.2020 12:00:00 16,1 8,6 21 11 42 23 SE 1003,2 - 0,0
27.09.2020 11:00:00 16,0 7,7 30 16 47 26 SSE 1003,0 14 0,0
27.09.2020 10:00:00 16,0 6,7 27 15 46 25 SSE 1002,7 - 0,0
27.09.2020 09:00:00 14,6 6,4 36 20 53 29 S 1002,3 - 0,0
27.09.2020 08:00:00 14,8 6,1 39 21 54 29 SSE 1001,2 25 0,0
27.09.2020 07:00:00 14,3 8,5 33 18 47 26 SSE 1002,1 - 0,0
27.09.2020 06:00:00 13,4 8,5 27 15 51 28 SSE 1002,6 - 0,2
27.09.2020 05:00:00 14,5 8,4 29 15 49 27 SSE 1002,6 - 0,0
27.09.2020 04:00:00 16,7 6,2 31 17 64 35 W 1002,0 12 0,0
27.09.2020 03:00:00 17,0 6,8 45 24 80 43 W 1002,2 - 0,0
27.09.2020 02:00:00 16,9 6,7 52 28 90 49 W 1002,2 - 0,0
27.09.2020 01:00:00 17,0 7,9 61 33 98 53 W 1002,4 - 0,0
27.09.2020 00:00:00 17,2 6,1 47 25 83 45 W 1001,9 - 0,0
26.09.2020 23:00:00 17,3 5,9 45 25 87 47 W 1001,0 - 0,0
26.09.2020 22:00:00 17,9 5,1 55 30 89 48 W 1000,9 - 0,0
26.09.2020 21:00:00 18,4 5,2 54 29 83 45 W 1000,6 - 0,0
26.09.2020 20:00:00 18,8 8,2 55 30 72 39 WNW 1000,1 - 0,0
26.09.2020 19:00:00 18,3 7,7 46 25 79 42 WNW 999,9 - 0,0
26.09.2020 18:00:00 19,0 6,8 44 24 84 45 W 998,5 - 0,0
26.09.2020 17:00:00 19,8 5,1 36 19 75 40 W 999,8 - 0,0
26.09.2020 16:00:00 19,1 6,2 45 24 98 53 W 1000,1 - 0,0
26.09.2020 15:00:00 19,1 6,2 62 33 95 51 W 1000,1 - 0,0
26.09.2020 14:00:00 18,6 7,7 62 33 95 51 W 1000,5 - 0,0
26.09.2020 13:00:00 18,5 9,3 59 32 95 51 W 1000,8 - 0,0
26.09.2020 12:00:00 18,6 9,4 54 29 91 49 W 1000,3 - 0,0
26.09.2020 11:00:00 18,8 7,9 55 30 75 41 W 1000,0 20 0,0
26.09.2020 10:00:00 18,8 9,3 43 23 67 36 WNW 999,9 - 0,0
26.09.2020 09:00:00 18,0 10,1 49 26 81 44 WNW 999,1 - 0,0
26.09.2020 08:00:00 18,8 9,3 38 21 54 29 WNW 998,8 20 0,0
26.09.2020 07:00:00 18,5 5,3 33 18 48 26 WNW 998,5 - 0,0
26.09.2020 06:00:00 18,3 8,8 35 19 54 29 W 997,7 - 0,0
26.09.2020 05:00:00 17,7 7,7 40 22 76 41 W 997,5 - 0,0
26.09.2020 04:00:00 16,6 8,0 58 32 85 46 W 996,3 - 0,0
26.09.2020 03:00:00 16,7 9,4 64 34 93 50 W 996,1 - 0,0
26.09.2020 02:00:00 17,1 9,8 55 30 85 46 W 997,6 - 0,0
26.09.2020 01:00:00 17,4 10,5 66 36 94 51 WNW 997,4 - 0,0
26.09.2020 00:00:00 18,1 11,6 72 39 93 50 WNW 996,5 - 0,0
25.09.2020 23:00:00 17,9 10,0 67 36 98 53 WNW 997,3 - 0,0
25.09.2020 22:00:00 18,6 10,7 71 39 99 54 WNW 997,9 - 0,0
25.09.2020 21:00:00 18,6 10,2 79 43 116 63 WNW 997,4 - 0,0
25.09.2020 20:00:00 18,4 9,7 88 47 129 69 WNW 997,2 - 0,0
25.09.2020 19:00:00 18,7 10,3 98 53 149 81 WNW 995,9 - 0,0
25.09.2020 18:00:00 18,5 10,6 114 62 152 82 W 992,6 - 0,0
25.09.2020 17:00:00 19,2 10,5 100 54 131 71 W 995,7 - 0,0
25.09.2020 16:00:00 19,3 9,5 97 53 134 72 W 996,2 - 0,0
25.09.2020 15:00:00 19,2 8,8 102 55 146 79 W 995,8 - 0,0
25.09.2020 14:00:00 19,7 10,1 104 56 157 85 W 996,6 12 0,0
25.09.2020 13:00:00 20,8 9,1 95 52 138 74 W 998,6 - 0,0
25.09.2020 12:00:00 20,6 8,9 82 45 110 60 W 999,2 - 0,0
25.09.2020 11:00:00 20,0 15,0 79 42 112 61 WNW 1000,1 - 0,0
25.09.2020 10:00:00 21,9 15,5 81 44 110 59 W 999,5 - 0,0
25.09.2020 09:00:00 22,3 13,9 74 40 103 56 W 999,8 - 0,0
25.09.2020 08:00:00 22,3 14,7 80 43 108 58 W 999,1 10 0,0

tt = Température de l'air
td = dewpoint
ff = Vitesse du vent
fx = gusts
dd = Direction du vent
ppp = reduced air pressure
vv = visibility
rr = Quantités de précipitations

stations d'obs. à proximité